TimeCST,TemperatureF,Dew PointF,Humidity,Sea Level PressureIn,VisibilityMPH,Wind Direction,Wind SpeedMPH,Gust SpeedMPH,PrecipitationIn,Events,Conditions,WindDirDegrees,DateUTC
12:15 AM,23.7,12.6,62,30.12,10.0,East,12.7,-,N/A,Snow,Light Snow,80,2013-02-21 06:15:00
12:35 AM,23.4,14.5,69,30.09,1.8,ENE,13.8,23.0,N/A,Snow,Light Snow,70,2013-02-21 06:35:00
12:55 AM,23.9,12.0,61,30.10,7.0,East,12.7,19.6,N/A,Snow,Light Snow,90,2013-02-21 06:55:00
1:15 AM,23.9,12.0,61,30.10,10.0,East,15.0,-,N/A,,Overcast,80,2013-02-21 07:15:00
1:35 AM,23.9,11.8,60,30.07,10.0,ENE,15.0,-,N/A,,Overcast,70,2013-02-21 07:35:00
1:55 AM,24.1,11.5,59,30.07,10.0,East,13.8,20.7,N/A,,Overcast,80,2013-02-21 07:55:00
2:15 AM,24.1,10.4,56,30.04,10.0,East,16.1,23.0,N/A,,Overcast,80,2013-02-21 08:15:00
2:35 AM,24.3,9.3,53,30.04,10.0,East,13.8,-,N/A,,Overcast,80,2013-02-21 08:35:00
2:55 AM,24.3,9.7,54,30.03,10.0,East,15.0,-,N/A,,Overcast,90,2013-02-21 08:55:00
3:15 AM,24.4,9.7,53,30.04,10.0,East,17.3,21.9,N/A,,Overcast,90,2013-02-21 09:15:00
3:35 AM,24.3,9.5,53,30.02,10.0,East,17.3,-,N/A,,Overcast,90,2013-02-21 09:35:00
3:55 AM,24.3,9.0,52,29.99,10.0,East,16.1,23.0,N/A,,Overcast,80,2013-02-21 09:55:00
4:15 AM,24.1,9.3,53,29.98,10.0,East,18.4,25.3,N/A,,Overcast,90,2013-02-21 10:15:00
4:35 AM,23.9,9.1,53,29.98,10.0,East,16.1,24.2,N/A,,Overcast,100,2013-02-21 10:35:00
4:55 AM,23.9,9.3,54,29.99,10.0,East,16.1,25.3,N/A,,Overcast,90,2013-02-21 10:55:00
5:15 AM,23.9,9.5,54,30.00,10.0,East,17.3,23.0,N/A,,Overcast,90,2013-02-21 11:15:00
5:55 AM,23.7,9.5,55,29.99,10.0,East,11.5,-,N/A,,Overcast,90,2013-02-21 11:55:00
6:15 AM,23.7,9.5,55,29.99,10.0,East,17.3,21.9,N/A,,Overcast,80,2013-02-21 12:15:00
6:35 AM,23.0,11.3,61,29.98,3.0,East,18.4,-,N/A,Snow,Light Snow,80,2013-02-21 12:35:00
6:55 AM,22.1,13.1,68,29.98,2.0,East,16.1,20.7,N/A,Snow,Light Snow,80,2013-02-21 12:55:00
7:15 AM,21.6,14.4,74,29.98,1.5,East,12.7,-,N/A,Snow,Light Snow,80,2013-02-21 13:15:00
7:35 AM,21.2,15.3,78,29.99,1.5,East,12.7,-,N/A,Snow,Light Snow,80,2013-02-21 13:35:00
7:55 AM,21.0,15.8,80,29.98,0.5,East,12.7,-,N/A,Snow,Snow,80,2013-02-21 13:55:00
8:15 AM,21.0,16.7,83,29.99,0.5,East,11.5,-,N/A,Snow,Snow,80,2013-02-21 14:15:00
8:35 AM,20.8,17.2,86,29.98,0.5,ENE,15.0,-,N/A,Snow,Snow,70,2013-02-21 14:35:00
8:55 AM,21.0,17.1,85,29.97,1.0,ENE,17.3,-,N/A,Snow,Light Snow,60,2013-02-21 14:55:00
9:15 AM,20.8,16.7,84,29.96,1.0,ENE,18.4,24.2,N/A,Snow,Light Snow,60,2013-02-21 15:15:00
9:35 AM,20.8,16.7,84,29.94,1.2,ENE,19.6,-,N/A,Snow,Light Snow,60,2013-02-21 15:35:00
9:55 AM,20.8,16.9,85,29.94,0.8,NE,17.3,25.3,N/A,Snow,Light Snow,50,2013-02-21 15:55:00
10:15 AM,20.8,16.7,84,29.93,1.0,ENE,18.4,24.2,N/A,Snow,Light Snow,60,2013-02-21 16:15:00
10:35 AM,20.8,17.2,86,29.93,0.5,NE,13.8,25.3,N/A,Snow,Light Snow,50,2013-02-21 16:35:00
11:15 AM,21.2,17.6,86,29.92,0.5,NE,16.1,-,N/A,Snow,Snow,50,2013-02-21 17:15:00
11:35 AM,21.6,18.0,86,29.91,0.2,NE,12.7,-,N/A,Snow,Snow,50,2013-02-21 17:35:00
11:55 AM,21.7,17.8,85,29.91,0.8,NE,15.0,24.2,N/A,Snow,Light Snow,50,2013-02-21 17:55:00
12:15 PM,21.7,17.6,84,29.89,0.8,NE,17.3,-,0.01,Snow,Light Snow,40,2013-02-21 18:15:00
12:35 PM,22.5,18.1,83,29.87,1.2,NE,19.6,-,0.02,Snow,Light Snow,40,2013-02-21 18:35:00
12:55 PM,22.5,18.5,85,29.86,0.8,NE,17.3,21.9,0.02,Snow,Light Snow,50,2013-02-21 18:55:00
1:15 PM,22.8,18.7,84,29.84,1.2,NE,19.6,-,0.01,Snow,Light Snow,50,2013-02-21 19:15:00
1:35 PM,23.0,19.0,85,29.83,2.5,NE,17.3,23.0,0.01,,Overcast,50,2013-02-21 19:35:00
1:55 PM,23.2,19.4,85,29.83,2.0,ENE,15.0,24.2,0.01,Snow,Light Snow,60,2013-02-21 19:55:00
2:15 PM,23.5,19.4,84,29.84,1.0,ENE,15.0,23.0,N/A,Snow,Light Snow,60,2013-02-21 20:15:00
2:35 PM,23.7,20.1,86,29.83,0.8,ENE,15.0,20.7,N/A,Snow,Light Snow,60,2013-02-21 20:35:00
2:55 PM,23.9,20.1,85,29.81,1.0,ENE,16.1,20.7,N/A,Snow,Light Snow,60,2013-02-21 20:55:00
3:15 PM,23.9,20.1,85,29.81,1.5,ENE,16.1,20.7,N/A,Snow,Light Snow,60,2013-02-21 21:15:00
3:35 PM,23.9,19.9,85,29.81,2.0,ENE,16.1,23.0,N/A,Snow,Light Snow,60,2013-02-21 21:35:00
3:55 PM,23.7,19.4,84,29.81,1.0,ENE,18.4,25.3,N/A,Snow,Light Snow,70,2013-02-21 21:55:00
4:15 PM,23.5,19.4,84,29.80,1.5,ENE,16.1,23.0,N/A,Snow,Light Snow,60,2013-02-21 22:15:00
4:35 PM,23.4,19.4,85,29.80,1.8,ENE,13.8,25.3,N/A,Snow,Light Snow,60,2013-02-21 22:35:00
4:55 PM,23.0,19.4,86,29.80,0.5,ENE,17.3,-,N/A,Snow,Snow,60,2013-02-21 22:55:00
5:15 PM,22.6,19.4,87,29.80,0.2,ENE,16.1,20.7,0.01,Snow,Snow,60,2013-02-21 23:15:00
5:35 PM,22.6,19.4,87,29.81,0.8,ENE,13.8,17.3,0.01,Snow,Light Snow,60,2013-02-21 23:35:00
5:55 PM,22.3,19.4,89,29.81,0.8,NE,15.0,19.6,0.01,Snow,Light Snow,50,2013-02-21 23:55:00
6:15 PM,22.1,19.0,88,29.81,0.8,NE,10.4,-,N/A,Snow,Light Snow,50,2013-02-22 00:15:00
6:35 PM,22.1,19.0,88,29.82,1.5,NE,10.4,-,N/A,Snow,Light Snow,50,2013-02-22 00:35:00
6:55 PM,22.1,18.9,87,29.82,2.0,NE,10.4,-,N/A,Snow,Light Snow,40,2013-02-22 00:55:00
7:15 PM,22.1,19.0,88,29.83,1.2,NE,10.4,-,0.01,Snow,Light Snow,40,2013-02-22 01:15:00
7:35 PM,22.1,19.2,89,29.83,1.0,NNE,8.1,-,0.01,Snow,Snow,30,2013-02-22 01:35:00
7:55 PM,22.1,19.0,88,29.83,1.5,NNE,9.2,-,0.01,Snow,Light Snow,20,2013-02-22 01:55:00
8:15 PM,21.9,18.7,87,29.83,1.5,NNE,9.2,-,N/A,Snow,Light Snow,20,2013-02-22 02:15:00
8:35 PM,22.1,18.5,86,29.83,3.0,North,8.1,-,N/A,Snow,Light Snow,10,2013-02-22 02:35:00
8:55 PM,21.7,18.1,86,29.83,4.0,North,8.1,-,N/A,Snow,Light Snow,10,2013-02-22 02:55:00
9:15 PM,21.2,17.6,86,29.83,7.0,North,6.9,-,N/A,Snow,Light Snow,350,2013-02-22 03:15:00
9:35 PM,21.2,17.6,86,29.83,7.0,North,6.9,-,N/A,Snow,Light Snow,360,2013-02-22 03:35:00
9:55 PM,21.2,17.4,85,29.85,7.0,North,8.1,-,N/A,Snow,Light Snow,360,2013-02-22 03:55:00
10:15 PM,21.2,17.4,85,29.84,5.0,North,9.2,-,N/A,Snow,Light Snow,350,2013-02-22 04:15:00
10:35 PM,21.0,17.1,85,29.85,7.0,North,8.1,-,N/A,Snow,Light Snow,350,2013-02-22 04:35:00
10:55 PM,20.7,16.7,85,29.85,10.0,North,9.2,-,N/A,,Overcast,350,2013-02-22 04:55:00
11:15 PM,20.3,16.5,85,29.85,7.0,North,9.2,-,N/A,Snow,Light Snow,350,2013-02-22 05:15:00
11:35 PM,20.1,16.3,85,29.85,5.0,NNW,9.2,-,N/A,Snow,Light Snow,330,2013-02-22 05:35:00
11:55 PM,20.3,16.5,85,29.85,10.0,NNW,10.4,-,N/A,Snow,Light Snow,340,2013-02-22 05:55:00